Dewpoint
54 53 53 53 52 51 53 55 47 52 56 47 47 37 33 34 33 35 36 36 36 34 35 34 33 35 36 36 35 36 37 33 29 32 33 33 29 32 32 32 32 30 28 30
54 53 53 53 52 52 49 50 48 54 53 36 37 35 36 37 36 35 36 37 36 36 36 32 36 37 39 35 38 36 36 32 27 29 31 34 33 32 33 33 31 29 28 29
54 53 53 53 52 52 52 50 38 50 51 47 38 36 36 36 39 37 36 36 38 37 35 37 34 35 39 40 39 41 39 35 30 28 30 34 32 32 32 32 24 28 29 29
54 53 53 52 52 52 53 49 40 43 39 41 39 39 37 36 38 39 37 37 37 35 33 32 34 37 38 39 42 39 37 31 34 34 35 34 34 32 32 31 30 28 29 28
53 53 53 52 52 51 52 46 45 47 40 40 39 37 37 35 34 35 37 35 38 37 35 37 36 38 38 37 38 38 39 31 33 34 35 35 32 32 31 31 31 30 29 27
52 53 51 51 52 52 53 49 47 48 43 40 36 37 37 37 38 39 37 37 37 34 40 41 41 41 41 40 38 36 35 31 31 31 34 33 26 29 30 30 29 29 28 30
52 51 51 52 51 52 54 53 51 39 35 36 39 39 37 36 39 38 39 38 35 42 43 42 41 39 40 41 39 38 31 30 29 31 29 26 30 31 29 30 31 32 36 38
52 50 50 52 51 52 53 54 51 41 34 41 41 40 39 39 40 39 40 41 44 44 43 36 33 30 28 29 37 40 38 32 32 31 29 29 31 32 31 29 28 38 37 37
52 51 51 52 51 52 53 56 54 45 36 38 44 39 40 36 36 37 40 45 45 43 35 35 29 22 27 27 29 39 39 36 32 28 24 24 27 31 36 34 29 40 41 42
51 51 51 51 51 51 53 54 57 52 42 46 43 40 39 42 39 36 38 41 38 43 35 33 31 28 32 26 26 25 29 27 25 19 27 28 32 34 40 28 32 39 43 43
50 50 50 50 50 51 53 54 57 53 43 47 47 47 44 43 41 34 39 38 37 36 33 34 32 32 31 29 30 27 26 25 29 29 30 25 36 35 29 34 39 40 40 40
50 50 50 50 50 50 51 51 57 56 49 48 52 52 52 49 48 45 42 40 41 40 34 33 34 33 34 33 31 32 30 31 28 31 29 35 36 35 37 37 38 41 41 41
50 50 50 50 50 50 52 52 54 51 40 47 47 46 49 51 50 50 41 40 44 43 44 39 35 34 36 33 33 33 36 38 33 32 33 34 36 36 37 38 40 42 43 43
49 49 49 49 50 50 51 51 55 52 43 34 42 47 47 50 50 49 50 47 48 47 45 36 34 34 41 35 36 35 37 36 34 34 35 35 36 37 39 41 45 45 42 40
49 49 49 49 50 50 50 52 53 54 49 37 38 44 46 47 48 48 48 48 47 43 38 34 35 37 37 36 36 35 39 35 35 33 35 36 37 39 41 42 42 43 40 34
49 49 49 49 49 49 50 44 50 53 53 40 35 44 42 45 46 45 46 47 47 47 41 36 40 42 39 33 35 36 36 38 39 38 38 38 40 40 38 38 39 32 31 34
48 49 49 49 49 50 46 43 47 50 51 36 35 36 40 41 42 44 45 46 45 45 41 38 38 39 41 33 35 36 38 38 38 38 39 40 42 38 35 31 30 31 30 35
48 48 48 49 49 48 45 47 48 50 45 38 35 34 35 41 37 35 40 36 38 41 40 37 36 38 36 33 38 37 37 37 36 39 41 38 34 30 27 28 29 30 32 34
48 48 48 46 44 41 43 47 46 46 43 36 33 32 33 40 38 36 36 38 33 38 34 36 38 34 34 37 37 34 35 36 36 34 32 30 29 29 29 28 29 32 34 34
46 45 40 35 40 47 46 42 37 36 35 35 32 36 34 39 34 33 34 33 32 31 33 36 33 32 34 34 34 35 34 33 34 33 32 30 28 29 29 30 32 35 34 33
44 38 35 42 46 43 38 32 32 33 31 32 34 35 34 38 33 32 33 32 32 28 26 27 23 27 31 32 33 34 36 33 32 31 29 27 27 27 31 30 31 30 30 31
42 41 43 42 40 35 33 32 32 31 28 33 33 34 36 35 40 33 33 29 29 23 28 25 23 27 28 31 32 32 30 29 27 26 26 27 28 31 31 30 30 29 30 29
43 38 34 36 33 30 26 23 30 28 33 34 34 33 34 35 35 32 31 27 25 27 26 22 24 29 32 30 30 29 29 27 27 28 29 31 31 32 29 29 27 32 31 28
32 30 22 24 24 23 28 29 32 33 33 34 33 33 31 31 29 29 25 24 25 19 16 17 25 29 31 31 31 31 31 27 27 29 30 29 28 29 27 23 31 31 27 28
29 28 19 22 28 31 32 33 33 33 34 34 33 32 30 24 22 22 20 16 20 18 16 21 27 29 28 29 31 30 27 24 25 30 28 27 27 32 33 33 32 30 29 29
29 27 22 27 25 30 30 32 32 34 33 32 29 25 19 17 20 16 16 15 14 17 22 26 27 28 29 29 28 29 30 30 31 31 31 30 26 31 33 33 33 32 30 28
25 22 29 32 29 31 31 32 32 35 28 21 22 15 17 22 15 15 23 17 19 22 25 27 27 27 28 29 28 28 30 31 30 30 30 30 28 29 31 31 31 30 28 28
Lifted_Index
7 7 7 7 7 5 3 1 1 1 1 1 1 2 3 3 3 3 2 2 2 2 2 2 2 2 3 3 4 4 4 4 3 3 3 3 3 2 2 2 2 2 2 2
7 7 7 7 7 5 3 2 1 1 1 1 2 3 3 3 3 3 2 2 2 2 2 2 2 3 3 3 3 3 4 4 3 3 3 3 3 3 2 2 2 2 2 2
6 6 6 6 6 5 3 2 2 2 1 2 2 2 3 3 3 2 2 2 2 2 2 2 2 3 3 3 3 3 3 4 4 3 3 3 3 3 3 3 3 3 2 2
6 6 6 6 6 5 3 2 2 2 2 2 2 2 2 2 2 2 2 2 2 2 2 2 2 2 2 2 3 3 3 3 3 3 3 3 3 3 3 3 3 3 2 2
6 5 5 5 5 4 2 2 2 2 2 2 2 2 2 2 2 2 2 2 2 2 2 2 2 2 2 2 2 3 3 3 3 3 3 3 3 3 3 3 3 2 2 2
5 5 5 5 5 3 2 2 2 2 3 3 3 2 2 2 2 2 2 2 2 2 2 2 2 2 3 3 3 3 3 2 3 3 3 3 3 3 3 3 2 2 2 2
5 5 5 5 5 3 2 2 2 2 3 2 2 2 2 2 2 2 2 2 2 2 2 2 3 3 4 4 3 3 3 3 3 3 3 3 3 3 3 3 2 2 2 2
4 4 4 4 4 4 2 2 2 2 2 2 2 2 2 2 2 2 1 2 2 2 2 3 4 4 4 4 4 3 3 3 3 3 4 4 4 3 3 3 3 2 2 2
4 4 4 4 4 4 3 1 1 2 2 2 2 2 2 2 2 1 1 1 1 2 3 4 4 4 4 4 4 3 3 3 3 4 4 3 3 3 2 2 3 2 2 2
3 3 3 3 3 3 2 1 1 1 2 2 2 2 2 1 1 1 1 1 2 2 3 4 4 4 4 4 4 4 4 4 3 3 3 3 2 2 1 2 2 2 1 2
3 3 3 2 2 2 2 1 1 1 1 2 1 1 1 1 1 1 1 2 2 3 3 4 4 4 4 4 4 4 4 3 3 3 3 2 2 1 1 1 1 1 1 2
2 2 2 2 2 2 2 1 1 1 1 1 1 1 0 0 0 1 1 2 2 2 3 4 4 4 5 5 4 4 3 3 3 3 3 2 1 1 1 1 1 1 1 1
2 2 1 1 1 1 1 1 1 1 1 2 2 1 1 0 0 1 1 1 1 2 2 3 4 4 4 4 4 4 4 3 2 2 2 2 2 2 2 1 1 1 1 1
2 2 2 2 1 2 2 1 1 1 1 2 2 2 2 1 1 1 1 1 1 1 1 2 3 3 3 4 4 4 3 2 2 2 2 2 2 2 2 1 1 2 2 2
3 2 2 2 2 2 2 2 2 2 1 2 2 3 2 2 2 1 1 1 0 1 1 2 2 2 2 3 4 4 3 2 2 2 2 2 2 2 2 2 2 3 3 4
3 3 3 3 3 3 3 3 3 2 2 2 3 3 3 3 2 2 1 1 1 1 1 2 2 2 2 3 3 3 2 2 1 1 2 2 2 2 2 3 3 4 4 4
3 3 3 3 3 3 3 3 3 2 2 2 3 4 4 4 3 3 2 1 1 1 1 1 1 2 2 2 2 2 2 1 1 1 1 2 2 2 3 4 5 4 4 3
4 4 3 3 3 3 3 4 3 3 2 2 3 4 5 5 4 3 3 2 2 2 1 1 1 1 2 1 1 1 1 1 2 2 2 2 3 3 4 5 5 4 3 3
5 5 4 3 4 4 4 4 4 3 3 3 3 4 5 5 5 4 3 3 3 3 3 2 2 2 2 2 1 1 2 2 2 2 2 3 3 4 4 4 4 3 3 2
5 5 4 5 5 5 4 4 3 4 4 4 4 4 4 4 4 3 3 4 4 4 4 3 3 3 3 2 2 2 2 3 3 3 3 4 4 4 4 4 3 3 3 2
5 5 5 6 6 5 4 3 3 3 4 4 4 3 3 4 3 3 4 4 4 4 4 4 4 4 4 3 3 3 3 3 4 4 5 5 4 4 4 3 3 3 3 3
5 5 5 5 5 4 3 3 3 3 3 3 3 3 3 4 4 4 4 4 4 4 5 5 5 4 3 3 3 3 3 3 4 4 5 5 4 4 3 3 3 3 3 3
5 5 4 4 4 3 3 3 3 3 3 3 3 4 4 5 5 5 5 5 5 5 5 5 4 3 3 3 3 3 3 3 3 4 4 4 4 3 3 2 2 2 2 3
5 5 4 4 4 4 4 4 4 4 4 4 4 4 5 5 6 6 6 6 5 5 4 3 3 2 2 2 2 2 2 2 2 3 3 3 3 2 2 3 2 2 2 2
6 6 6 6 6 5 5 5 4 4 4 4 4 5 5 5 6 6 6 6 5 4 3 2 2 2 2 2 2 2 2 1 1 2 2 2 2 2 2 3 2 2 2 2
6 6 7 7 6 6 6 5 5 5 4 5 5 5 5 5 5 6 5 5 4 3 2 2 2 3 3 2 2 2 1 1 1 2 2 1 1 1 2 3 3 2 3 3
7 7 7 6 6 6 5 5 5 4 4 5 5 5 5 5 5 5 4 4 3 2 2 3 3 3 3 3 2 2 1 1 2 2 2 1 1 1 2 3 2 2 3 3